Wahoo, NE

11:09 AM CST on December 07, 2016 (GMT -0600)
Wahoo Municipal

Weather History for KAHQ - April, 2014

Change the Weather History Date:

Monday, April 14, 2014

  Actual Average Record
Temperature  
Mean Temperature 34 °F -  
Max Temperature 41 °F 62 °F 81 °F (1976)
Min Temperature 28 °F 37 °F 23 °F (1986)
Degree Days  
Heating Degree Days 30    
Moisture  
Dew Point 21 °F    
Average Humidity 63    
Maximum Humidity 81    
Minimum Humidity 45    
Precipitation  
Precipitation 0.00 in - - ()
Sea Level Pressure  
Sea Level Pressure 30.13 in    
Wind  
Wind Speed 22 mph (NNW)    
Max Wind Speed 33 mph    
Max Gust Speed 44 mph    
Visibility 10 miles    
Events      
Averages and records for this station are not official NWS values.
T = Trace of Precipitation, MM = Missing Value Source: NWS Daily Summary

Daily Weather History Graph

Daily Weather History Graph

Search for Another Location

Airport or City:

Trip Planner

Search our weather history database for the weather conditions in past years. The results will help you decide how hot, cold, wet, or windy it might be!

Date:

Astronomy

Apr. 14, 2014 Rise Set
Actual Time 6:48 AM CDT 8:05 PM CDT
Civil Twilight 6:19 AM CDT 8:34 PM CDT
Nautical Twilight 5:45 AM CDT 9:08 PM CDT
Astronomical Twilight 5:09 AM CDT 9:44 PM CDT
Moon 7:45 PM CDT (4/14) 6:21 AM CDT (4/14)
Length of Visible Light 14h 14m
Length of Day
13h 17m
Full, 100% of the Moon is Illuminated
Apr 14
Full
Apr 15
Full
Apr 22
Last Quarter
Apr 29
New
May 6
First Quarter

Hourly Weather History & Observations

Time (CDT) Temp. Windchill Dew Point Humidity Pressure Visibility Wind Dir Wind Speed Gust Speed Precip Events Conditions
12:15 AM 33.1 °F 19.1 °F 23.5 °F 68% 29.97 in 10.0 mi North 29.9 mph 41.4 mph N/A   Overcast
12:35 AM 32.9 °F 19.3 °F 23.5 °F 68% 29.97 in 10.0 mi North 27.6 mph 36.8 mph N/A   Mostly Cloudy
12:55 AM 32.2 °F 17.9 °F 23.5 °F 70% 29.97 in 10.0 mi North 29.9 mph 36.8 mph N/A   Mostly Cloudy
1:15 AM 32.0 °F 17.4 °F 23.4 °F 70% 29.99 in 10.0 mi North 31.1 mph 43.7 mph N/A   Mostly Cloudy
1:35 AM 32.0 °F 17.2 °F 22.5 °F 68% 29.97 in 10.0 mi North 32.2 mph 41.4 mph N/A   Overcast
1:55 AM 31.6 °F 18.4 °F 22.8 °F 70% 30.02 in 10.0 mi North 24.2 mph 35.7 mph N/A   Overcast
2:15 AM 31.6 °F 16.5 °F 22.5 °F 69% 30.03 in 10.0 mi North 33.4 mph 41.4 mph N/A   Overcast
2:35 AM 31.1 °F 17.2 °F 22.8 °F 71% 30.02 in 10.0 mi North 26.5 mph 34.5 mph N/A   Overcast
2:55 AM 30.9 °F 16.9 °F 21.9 °F 69% 30.02 in 10.0 mi North 26.5 mph 38.0 mph N/A   Overcast
3:15 AM 30.7 °F 16.7 °F 21.9 °F 70% 30.00 in 10.0 mi North 26.5 mph 34.5 mph N/A   Overcast
3:35 AM 30.6 °F 15.7 °F 20.7 °F 67% 30.02 in 10.0 mi North 29.9 mph 40.3 mph N/A   Overcast
3:55 AM 30.2 °F 15.7 °F 21.4 °F 70% 30.03 in 10.0 mi North 27.6 mph 35.7 mph N/A   Overcast
4:15 AM 30.2 °F 15.7 °F 21.0 °F 69% 30.04 in 10.0 mi NNW 27.6 mph 38.0 mph N/A   Overcast
4:35 AM 29.8 °F 15.7 °F 21.2 °F 70% 30.04 in 10.0 mi North 25.3 mph 36.8 mph N/A   Overcast
4:55 AM 29.8 °F 15.7 °F 21.2 °F 70% 30.06 in 10.0 mi NNW 25.3 mph 32.2 mph N/A   Overcast
5:15 AM 29.5 °F 15.3 °F 20.7 °F 70% 30.07 in 10.0 mi NNW 25.3 mph 34.5 mph N/A   Overcast
5:35 AM 29.3 °F 15.3 °F 20.3 °F 69% 30.07 in 10.0 mi NNW 24.2 mph 33.4 mph N/A   Overcast
5:55 AM 29.1 °F 15.1 °F 20.1 °F 69% 30.08 in 10.0 mi NNW 24.2 mph 31.1 mph N/A   Overcast
6:15 AM 28.9 °F 15.1 °F 19.9 °F 69% 30.09 in 10.0 mi NNW 23.0 mph 32.2 mph N/A   Overcast
6:35 AM 28.6 °F 14.6 °F 19.6 °F 69% 30.10 in 10.0 mi NNW 23.0 mph 31.1 mph N/A   Overcast
6:55 AM 28.2 °F 14.8 °F 19.4 °F 70% 30.12 in 10.0 mi NNW 20.7 mph 33.4 mph N/A   Overcast
7:15 AM 28.2 °F 15.2 °F 19.4 °F 70% 30.13 in 10.0 mi NNW 19.6 mph 29.9 mph N/A   Overcast
7:35 AM 28.2 °F 14.5 °F 19.0 °F 68% 30.14 in 10.0 mi NNW 21.9 mph 29.9 mph N/A   Mostly Cloudy
7:55 AM 28.0 °F 14.9 °F 18.7 °F 68% 30.15 in 10.0 mi NNW 19.6 mph 29.9 mph N/A   Mostly Cloudy
8:15 AM 28.2 °F 14.8 °F 19.0 °F 68% 30.15 in 10.0 mi NNW 20.7 mph 25.3 mph N/A   Overcast
8:35 AM 28.4 °F 15.4 °F 18.9 °F 67% 30.16 in 10.0 mi NNW 19.6 mph 27.6 mph N/A   Scattered Clouds
8:55 AM 28.4 °F 15.4 °F 18.7 °F 67% 30.17 in 10.0 mi NNW 19.6 mph 25.3 mph N/A   Clear
9:15 AM 29.1 °F 17.1 °F 19.2 °F 67% 30.17 in 10.0 mi NNW 17.3 mph 23.0 mph N/A   Clear
9:35 AM 28.9 °F 15.4 °F 18.3 °F 65% 30.18 in 10.0 mi NNW 21.9 mph 27.6 mph N/A   Clear
9:55 AM 29.3 °F 15.3 °F 19.0 °F 66% 30.18 in 10.0 mi NNW 24.2 mph - N/A   Clear
10:15 AM 29.7 °F 17.1 °F 17.8 °F 61% 30.19 in 10.0 mi North 19.6 mph 27.6 mph N/A   Clear
10:35 AM 30.0 °F 17.5 °F 18.3 °F 62% 30.19 in 10.0 mi NNW 19.6 mph - N/A   Clear
10:55 AM 30.2 °F 18.1 °F 18.3 °F 61% 30.20 in 10.0 mi NNW 18.4 mph 24.2 mph N/A   Clear
11:15 AM 30.7 °F 18.1 °F 18.0 °F 59% 30.21 in 10.0 mi NNW 20.7 mph 24.2 mph N/A   Clear
11:35 AM 31.6 °F 21.2 °F 19.4 °F 61% 30.21 in 10.0 mi NNW 15.0 mph 21.9 mph N/A   Clear
11:55 AM 32.0 °F 21.2 °F 19.4 °F 60% 30.22 in 10.0 mi NNW 16.1 mph 23.0 mph N/A   Clear
12:35 PM 34.3 °F 23.5 °F 19.6 °F 55% 30.22 in 10.0 mi NNW 18.4 mph 25.3 mph N/A   Clear
12:55 PM 34.9 °F 24.6 °F 19.9 °F 55% 30.21 in 10.0 mi NNW 17.3 mph 24.2 mph N/A   Clear
1:15 PM 35.6 °F 25.9 °F 19.8 °F 53% 30.21 in 10.0 mi North 16.1 mph - N/A   Clear
1:35 PM 36.0 °F 26.3 °F 19.4 °F 51% 30.21 in 10.0 mi NNW 16.1 mph 23.0 mph N/A   Clear
1:55 PM 36.9 °F 27.8 °F 19.6 °F 50% 30.20 in 10.0 mi NNW 15.0 mph 21.9 mph N/A   Clear
2:15 PM 37.4 °F 28.2 °F 18.5 °F 46% 30.19 in 10.0 mi North 16.1 mph 21.9 mph N/A   Clear
2:35 PM 37.9 °F 29.6 °F 19.0 °F 47% 30.19 in 10.0 mi North 13.8 mph 17.3 mph N/A   Clear
3:15 PM 38.8 °F 32.6 °F 19.0 °F 45% 30.17 in 10.0 mi NW 9.2 mph 17.3 mph N/A   Clear
3:35 PM 39.6 °F 32.1 °F 20.3 °F 46% 30.17 in 10.0 mi NNW 12.7 mph - N/A   Clear
3:55 PM 40.1 °F 32.7 °F 21.4 °F 47% 30.16 in 10.0 mi NW 12.7 mph 18.4 mph N/A   Clear
4:15 PM 40.3 °F 33.0 °F 22.1 °F 48% 30.16 in 10.0 mi NNW 12.7 mph 20.7 mph N/A   Scattered Clouds
4:35 PM 40.3 °F 33.9 °F 21.2 °F 47% 30.15 in 10.0 mi NW 10.4 mph 17.3 mph N/A   Scattered Clouds
4:55 PM 40.8 °F 33.3 °F 23.2 °F 50% 30.15 in 10.0 mi NNW 13.8 mph 17.3 mph N/A   Scattered Clouds
5:15 PM 40.8 °F 32.3 °F 22.3 °F 48% 30.14 in 10.0 mi NW 17.3 mph 20.7 mph N/A   Mostly Cloudy
5:35 PM 40.5 °F 32.8 °F 21.7 °F 47% 30.14 in 10.0 mi NW 13.8 mph - N/A   Mostly Cloudy
5:55 PM 41.2 °F 33.7 °F 22.1 °F 47% 30.14 in 10.0 mi NW 13.8 mph - N/A   Mostly Cloudy
6:15 PM 40.5 °F 34.1 °F 20.7 °F 45% 30.14 in 10.0 mi NNW 10.4 mph 19.6 mph N/A   Mostly Cloudy
6:35 PM 39.2 °F 33.0 °F 21.0 °F 48% 30.14 in 10.0 mi NNW 9.2 mph - N/A   Overcast
6:55 PM 38.8 °F 31.6 °F 22.1 °F 51% 30.14 in 10.0 mi NNW 11.5 mph - N/A   Overcast
7:15 PM 38.3 °F 30.9 °F 22.5 °F 53% 30.14 in 10.0 mi NW 11.5 mph - N/A   Overcast
7:35 PM 38.3 °F 31.4 °F 22.6 °F 53% 30.14 in 10.0 mi NW 10.4 mph - N/A   Overcast
7:55 PM 37.6 °F 33.1 °F 22.8 °F 55% 30.14 in 10.0 mi NW 5.8 mph - N/A   Overcast
8:15 PM 36.9 °F 31.4 °F 24.6 °F 61% 30.14 in 10.0 mi NNW 6.9 mph - N/A   Overcast
8:35 PM 35.2 °F 29.5 °F 24.8 °F 66% 30.14 in 10.0 mi NNW 6.9 mph - N/A   Mostly Cloudy
8:55 PM 32.7 °F 27.3 °F 25.0 °F 73% 30.15 in 10.0 mi North 5.8 mph - N/A   Scattered Clouds
9:15 PM 32.0 °F 26.4 °F 24.8 °F 75% 30.16 in 10.0 mi North 5.8 mph - N/A   Scattered Clouds
9:35 PM 31.6 °F 27.0 °F 24.8 °F 76% 30.17 in 10.0 mi North 4.6 mph - N/A   Scattered Clouds
9:55 PM 31.1 °F 24.5 °F 24.6 °F 77% 30.18 in 10.0 mi North 6.9 mph - N/A   Clear
10:15 PM 31.5 °F - 24.1 °F 74% 30.18 in 10.0 mi Calm Calm - N/A   Clear
10:35 PM 30.9 °F 27.5 °F 23.5 °F 74% 30.18 in 10.0 mi NNW 3.5 mph - N/A   Clear
10:55 PM 30.2 °F 24.3 °F 24.3 °F 79% 30.18 in 10.0 mi NW 5.8 mph - N/A   Clear
11:15 PM 30.2 °F 25.4 °F 24.8 °F 80% 30.18 in 10.0 mi NW 4.6 mph - N/A   Clear
11:35 PM 30.6 °F 24.7 °F 25.3 °F 81% 30.18 in 10.0 mi NW 5.8 mph - N/A   Scattered Clouds